This demonstration page uses our WeatherBlox Daily Observations layout. Learn more.

Left ArrowRight Arrow

44.8408, -93.29828

Hourly Observations for November 9, 2019

Temp ( °F °C ) Dew Point ( °F °C ) Humidity (%) Winds ( mph kmh ) Pressure ( in mb ) Visibility ( mi km ) Precip ( " mm )
12:53 am 00:53 Cloudy 35 1.7 24 -4.4 64 64 S 6 9 29.88 1012 10 16 0.00 0.00
1:53 am 01:53 Cloudy 35 1.7 23 -5 61 61 SSW 8 13 29.86 1011 10 16 0.00 0.00
2:53 am 02:53 Partly Cloudy 33 0.6 23 -5 66 66 SSW 7 11 29.84 1011 10 16 0.00 0.00
3:53 am 03:53 Partly Cloudy 32 0 23 -5 69 69 SSW 3 6 29.84 1011 10 16 0.00 0.00
4:53 am 04:53 Partly Cloudy 30 -1.1 22 -5.6 72 72 Calm 29.85 1011 10 16 0.00 0.00
5:53 am 05:53 Mostly Clear 30 -1.1 23 -5 75 75 Calm 29.85 1011 10 16 0.00 0.00
6:53 am 06:53 Mostly Cloudy 30 -1.1 23 -5 75 75 Calm 29.87 1012 10 16 0.00 0.00
7:53 am 07:53 Mostly Cloudy 30 -1.1 24 -4.4 79 79 W 5 7 29.88 1012 10 16 0.00 0.00
8:53 am 08:53 Partly Cloudy 33 0.6 26 -3.3 75 75 W 5 7 29.88 1012 10 16 0.00 0.00
9:53 am 09:53 Partly Cloudy 39 3.9 29 -1.7 67 67 NW 6 9 29.88 1012 10 16 0.00 0.00
10:53 am 10:53 Partly Cloudy 40 4.4 28 -2.2 63 63 W 3 6 29.88 1012 10 16 0.00 0.00
11:53 am 11:53 Mostly Cloudy 43 6.1 29 -1.7 58 58 W 9 15 29.89 1012 10 16 0.00 0.00
12:53 pm 12:53 Cloudy 44 6.7 28 -2.2 53 53 W 10 17 29.87 1011 10 16 0.00 0.00
1:53 pm 13:53 Cloudy 44 6.7 28 -2.2 53 53 NW 8 13 29.86 1011 10 16 0.00 0.00
2:53 pm 14:53 Cloudy with Light Rain 42 5.6 31 -0.6 65 65 WNW 9 15 29.87 1011 9 14 0.00 0.00
3:53 pm 15:53 Cloudy with Light Rain 39 3.9 33 0.6 79 79 W 10 17 29.89 1012 5 8 0.01 0.25
4:53 pm 16:53 Cloudy with Light Rain 38 3.3 34 1.1 86 86 W 8 13 29.91 1013 6 10 0.03 0.76
5:15 pm 17:15 Cloudy with Light Rain 38 3.3 34 1.1 86 86 WNW 7 11 29.91 1013 9 14 0.00 0.00
5:53 pm 17:53 Cloudy 37 2.8 34 1.1 89 89 NW 10 17 29.91 1013 9 14 0.00 0.00
6:53 pm 18:53 Cloudy 36 2.2 33 0.6 89 89 NW 8 13 29.93 1014 8 13 0.00 0.00
7:53 pm 19:53 Cloudy 35 1.7 31 -0.6 85 85 NNW 14 22 29.94 1014 10 16 0.00 0.00
8:25 pm 20:25 Cloudy 34 1.1 30 -1.1 85 85 NNW 12 19 29.97 1015 10 16 0.00 0.00
8:53 pm 20:53 Cloudy 34 1.1 30 -1.1 85 85 NNW 10 17 29.96 1015 10 16 0.00 0.00
9:53 pm 21:53 Cloudy 34 1.1 30 -1.1 85 85 NNW 9 15 29.98 1015 9 14 0.00 0.00
10:31 pm 22:31 Cloudy 34 1.1 30 -1.1 85 85 NW 10 17 30.01 1016 9 14 0.00 0.00
10:53 pm 22:53 Cloudy 34 1.1 30 -1.1 85 85 NNW 15 24 30.01 1016 9 14 0.00 0.00
11:33 pm 23:33 Mostly Cloudy 33 0.6 29 -1.7 85 85 NNW 12 19 30.02 1017 10 16 0.00 0.00
11:53 pm 23:53 Partly Cloudy 33 0.6 28 -2.2 82 82 NW 9 15 30.00 1016 10 16 0.00 0.00

Powered by AerisWeather